StationID,Date,MaxTemp,MinTemp,Precipitation,Snowfall,SnowDepth
"USC00311949","2008-08-01",91.04,73.94,0.00,0.00,
"USC00311949","2008-08-02",89.96,71.96,0.00,0.00,0.00
"USC00311949","2008-08-03",93.02,69.98,198.00,0.00,0.00
"USC00311949","2008-08-04",87.98,66.92,0.00,0.00,0.00
"USC00311949","2008-08-05",,,,0.00,0.00
"USC00311949","2008-08-06",91.04,69.98,,0.00,0.00
"USC00311949","2008-08-07",,,0.00,0.00,0.00
"USC00311949","2008-08-08",84.02,64.94,0.00,0.00,0.00
"USC00311949","2008-08-09",,,,0.00,0.00
"USC00311949","2008-08-10",84.02,60.08,,0.00,0.00
"USC00311949","2008-08-11",84.92,66.92,61.00,0.00,0.00
"USC00311949","2008-08-12",82.04,57.02,0.00,0.00,0.00
"USC00311949","2008-08-13",82.04,57.02,0.00,0.00,0.00
"USC00311949","2008-08-14",86.00,62.96,0.00,0.00,0.00
"USC00311949","2008-08-15",82.94,60.08,0.00,0.00,0.00
"USC00311949","2008-08-16",86.00,62.96,0.00,0.00,0.00
"USC00311949","2008-08-17",84.02,60.98,0.00,0.00,0.00
"USC00311949","2008-08-18",82.04,60.08,0.00,0.00,0.00
"USC00311949","2008-08-19",,,0.00,0.00,0.00
"USC00311949","2008-08-20",87.98,60.98,0.00,0.00,0.00
"USC00311949","2008-08-21",86.00,66.02,0.00,0.00,0.00
"USC00311949","2008-08-22",84.02,64.94,0.00,0.00,0.00
"USC00311949","2008-08-23",84.92,62.06,0.00,0.00,0.00
"USC00311949","2008-08-24",82.04,62.96,0.00,0.00,0.00
"USC00311949","2008-08-25",84.92,64.04,3.00,0.00,0.00
"USC00311949","2008-08-26",87.08,64.04,0.00,0.00,0.00
"USC00311949","2008-08-27",82.94,71.96,13.00,0.00,0.00
"USC00311949","2008-08-28",80.96,71.96,406.00,0.00,0.00
"USC00311949","2008-08-29",84.02,71.06,86.00,0.00,0.00
"USC00311949","2008-08-30",87.98,71.06,3.00,0.00,0.00
"USC00311949","2008-08-31",89.96,68.00,0.00,0.00,0.00
"USC00311949","2008-09-01",84.92,62.06,0.00,0.00,0.00
"USC00311949","2008-09-02",82.94,55.04,0.00,0.00,0.00
"USC00311949","2008-09-03",84.92,55.94,0.00,0.00,0.00
"USC00311949","2008-09-04",87.98,64.04,0.00,0.00,0.00
"USC00311949","2008-09-05",89.96,60.98,0.00,0.00,0.00
"USC00311949","2008-09-06",82.94,66.02,312.00,0.00,0.00
"USC00311949","2008-09-07",,,0.00,0.00,0.00
"USC00311949","2008-09-08",89.96,71.96,0.00,0.00,0.00
"USC00311949","2008-09-09",87.98,71.06,0.00,0.00,0.00
"USC00311949","2008-09-10",86.00,71.96,0.00,0.00,0.00
"USC00311949","2008-09-11",78.98,69.98,38.00,0.00,0.00
"USC00311949","2008-09-12",87.08,69.98,0.00,0.00,0.00
"USC00311949","2008-09-13",86.00,69.08,58.00,0.00,0.00
"USC00311949","2008-09-14",89.96,73.04,0.00,0.00,0.00
"USC00311949","2008-09-15",89.06,73.94,0.00,0.00,0.00
"USC00311949","2008-09-16",89.06,71.06,30.00,0.00,0.00
"USC00311949","2008-09-17",75.92,66.92,0.00,0.00,0.00
"USC00311949","2008-09-18",73.94,57.92,0.00,0.00,0.00
"USC00311949","2008-09-19",75.02,57.92,0.00,0.00,0.00
"USC00311949","2008-09-20",73.04,69.98,0.00,0.00,0.00
"USC00311949","2008-09-21",75.02,64.94,0.00,0.00,0.00
"USC00311949","2008-09-22",77.00,64.04,0.00,0.00,0.00
"USC00311949","2008-09-23",73.94,64.04,0.00,0.00,0.00
"USC00311949","2008-09-24",71.96,64.04,0.00,0.00,0.00
"USC00311949","2008-09-25",68.00,64.94,114.00,0.00,0.00
"USC00311949","2008-09-26",75.02,64.94,132.00,0.00,0.00
"USC00311949","2008-09-27",84.02,64.04,13.00,0.00,0.00
"USC00311949","2008-09-28",84.92,64.94,0.00,0.00,0.00
"USC00311949","2008-09-29",82.94,62.96,0.00,0.00,0.00
"USC00311949","2008-09-30",80.06,59.00,0.00,0.00,0.00
"USC00311949","2008-10-01",80.06,59.00,0.00,0.00,0.00
"USC00311949","2008-10-02",80.96,51.08,147.00,0.00,0.00
"USC00311949","2008-10-03",71.06,44.96,0.00,0.00,0.00
"USC00311949","2008-10-04",75.02,44.06,0.00,0.00,0.00
"USC00311949","2008-10-05",78.08,46.94,0.00,0.00,0.00
"USC00311949","2008-10-06",80.06,50.00,0.00,0.00,0.00
"USC00311949","2008-10-07",80.06,50.00,0.00,0.00,0.00
"USC00311949","2008-10-08",69.98,44.06,0.00,0.00,0.00
"USC00311949","2008-10-09",80.96,59.00,13.00,0.00,0.00
"USC00311949","2008-10-10",77.00,46.04,0.00,0.00,0.00
"USC00311949","2008-10-11",71.06,64.94,137.00,0.00,0.00
"USC00311949","2008-10-12",71.96,66.02,0.00,0.00,0.00
"USC00311949","2008-10-13",77.00,55.04,0.00,0.00,0.00
"USC00311949","2008-10-14",75.92,46.94,0.00,0.00,0.00
"USC00311949","2008-10-15",82.04,48.02,0.00,0.00,0.00
"USC00311949","2008-10-16",84.02,51.08,0.00,0.00,0.00
"USC00311949","2008-10-17",86.00,51.08,0.00,0.00,0.00
"USC00311949","2008-10-18",75.92,53.96,191.00,0.00,0.00
"USC00311949","2008-10-19",59.00,51.08,25.00,0.00,0.00
"USC00311949","2008-10-20",62.06,39.02,0.00,0.00,0.00
"USC00311949","2008-10-21",62.96,37.94,0.00,0.00,0.00
"USC00311949","2008-10-22",73.04,41.00,0.00,0.00,0.00
"USC00311949","2008-10-23",59.00,37.04,0.00,0.00,0.00
"USC00311949","2008-10-24",62.96,37.04,0.00,0.00,0.00
"USC00311949","2008-10-25",64.94,51.98,69.00,0.00,0.00
"USC00311949","2008-10-26",75.02,50.00,23.00,0.00,0.00
"USC00311949","2008-10-27",66.92,42.98,0.00,0.00,0.00
"USC00311949","2008-10-28",71.06,35.06,119.00,0.00,0.00
"USC00311949","2008-10-29",57.02,35.06,0.00,0.00,0.00
"USC00311949","2008-10-30",55.94,28.94,0.00,0.00,0.00
"USC00311949","2008-10-31",53.96,28.04,0.00,0.00,0.00
"USC00311949","2008-11-01",64.94,28.04,0.00,0.00,0.00
"USC00311949","2008-11-02",71.96,33.98,0.00,0.00,0.00
"USC00311949","2008-11-03",73.04,37.04,0.00,0.00,0.00
"USC00311949","2008-11-04",68.00,57.92,213.00,0.00,0.00
"USC00311949","2008-11-05",66.02,60.08,462.00,0.00,0.00
"USC00311949","2008-11-06",66.02,57.02,28.00,0.00,0.00
"USC00311949","2008-11-07",66.92,55.04,5.00,0.00,0.00
"USC00311949","2008-11-08",73.04,53.06,0.00,0.00,0.00
"USC00311949","2008-11-09",73.94,41.00,0.00,0.00,0.00
"USC00311949","2008-11-10",73.94,37.04,0.00,0.00,0.00
"USC00311949","2008-11-11",,,0.00,0.00,0.00
"USC00311949","2008-11-12",60.98,33.98,0.00,0.00,0.00
"USC00311949","2008-11-13",62.96,33.98,0.00,0.00,0.00
"USC00311949","2008-11-14",66.92,33.98,119.00,0.00,0.00
"USC00311949","2008-11-15",71.06,60.08,64.00,0.00,0.00
"USC00311949","2008-11-16",75.02,44.06,46.00,0.00,0.00
"USC00311949","2008-11-17",55.94,33.08,0.00,0.00,0.00
"USC00311949","2008-11-18",53.06,30.92,0.00,0.00,0.00
"USC00311949","2008-11-19",46.04,28.94,0.00,0.00,0.00
"USC00311949","2008-11-20",41.00,24.08,0.00,0.00,0.00
"USC00311949","2008-11-21",55.04,32.00,0.00,0.00,0.00
"USC00311949","2008-11-22",55.04,23.00,20.00,0.00,0.00
"USC00311949","2008-11-23",41.00,28.04,0.00,0.00,0.00
"USC00311949","2008-11-24",51.08,24.08,0.00,0.00,0.00
"USC00311949","2008-11-25",59.00,23.00,23.00,0.00,0.00
"USC00311949","2008-11-26",59.00,23.00,0.00,0.00,0.00
"USC00311949","2008-11-27",50.00,24.08,0.00,0.00,0.00
"USC00311949","2008-11-28",59.00,28.94,3.00,0.00,0.00
"USC00311949","2008-11-29",64.94,37.04,0.00,0.00,0.00
"USC00311949","2008-11-30",55.04,46.04,74.00,0.00,0.00
"USC00311949","2008-12-01",62.96,50.00,203.00,0.00,0.00
"USC00311949","2008-12-02",60.98,37.04,0.00,0.00,0.00
"USC00311949","2008-12-03",42.98,26.06,5.00,0.00,0.00
"USC00311949","2008-12-04",51.08,26.06,0.00,0.00,0.00
"USC00311949","2008-12-05",60.08,32.00,0.00,0.00,0.00
"USC00311949","2008-12-06",46.04,26.96,0.00,0.00,0.00
"USC00311949","2008-12-07",55.94,26.96,25.00,0.00,0.00
"USC00311949","2008-12-08",44.06,26.96,0.00,0.00,0.00
"USC00311949","2008-12-09",44.06,26.96,0.00,0.00,0.00
"USC00311949","2008-12-10",,,,0.00,0.00
"USC00311949","2008-12-11",68.00,44.96,,0.00,0.00
"USC00311949","2008-12-12",78.08,57.02,356.00,0.00,0.00
"USC00311949","2008-12-13",71.96,21.02,0.00,0.00,0.00
"USC00311949","2008-12-14",44.06,30.92,0.00,0.00,0.00
"USC00311949","2008-12-15",64.04,32.00,0.00,0.00,0.00
"USC00311949","2008-12-16",69.98,55.04,23.00,0.00,0.00
"USC00311949","2008-12-17",69.98,48.02,5.00,0.00,0.00
"USC00311949","2008-12-18",66.02,48.92,3.00,0.00,0.00
"USC00311949","2008-12-19",69.98,50.00,10.00,0.00,0.00
"USC00311949","2008-12-20",55.94,46.94,0.00,0.00,0.00
"USC00311949","2008-12-21",59.00,48.02,51.00,0.00,0.00
"USC00311949","2008-12-22",64.04,28.94,20.00,0.00,0.00
"USC00311949","2008-12-23",33.98,19.04,0.00,0.00,0.00
"USC00311949","2008-12-24",44.96,23.00,0.00,0.00,0.00
"USC00311949","2008-12-25",66.92,41.00,20.00,0.00,0.00
"USC00311949","2008-12-26",,,,0.00,0.00
"USC00311949","2008-12-27",66.92,46.94,,0.00,0.00
"USC00311949","2008-12-28",71.96,50.00,15.00,0.00,0.00
"USC00311949","2008-12-29",73.94,55.94,0.00,0.00,0.00
"USC00311949","2008-12-30",55.94,37.04,51.00,0.00,0.00
"USC00311949","2008-12-31",60.08,35.96,0.00,0.00,0.00
"USC00311949","2009-01-01",60.08,24.98,0.00,0.00,0.00
"USC00311949","2009-01-02",46.04,26.06,0.00,0.00,0.00
"USC00311949","2009-01-03",55.94,23.00,36.00,0.00,0.00
"USC00311949","2009-01-04",53.96,30.92,0.00,0.00,0.00
"USC00311949","2009-01-05",55.04,30.92,5.00,0.00,0.00
"USC00311949","2009-01-06",60.08,33.08,107.00,0.00,0.00
"USC00311949","2009-01-07",71.06,46.94,0.00,0.00,0.00
"USC00311949","2009-01-08",53.96,41.00,41.00,0.00,0.00
"USC00311949","2009-01-09",50.00,30.02,13.00,0.00,0.00
"USC00311949","2009-01-10",41.00,28.04,0.00,0.00,0.00
"USC00311949","2009-01-11",60.98,28.94,36.00,0.00,0.00
"USC00311949","2009-01-12",57.92,35.96,15.00,0.00,0.00
"USC00311949","2009-01-13",44.06,30.02,0.00,0.00,0.00
"USC00311949","2009-01-14",53.06,30.92,157.00,0.00,0.00
"USC00311949","2009-01-15",42.08,28.94,0.00,0.00,0.00
"USC00311949","2009-01-16",46.94,19.04,0.00,0.00,0.00
"USC00311949","2009-01-17",26.96,12.92,0.00,0.00,0.00
"USC00311949","2009-01-18",30.92,14.00,0.00,0.00,0.00
"USC00311949","2009-01-19",44.96,30.92,64.00,0.00,0.00
"USC00311949","2009-01-20",51.08,32.00,13.00,0.00,0.00
"USC00311949","2009-01-21",35.96,12.92,,,76.00
"USC00311949","2009-01-22",33.08,12.02,0.00,0.00,0.00
"USC00311949","2009-01-23",48.02,19.94,0.00,0.00,0.00
"USC00311949","2009-01-24",57.92,33.98,0.00,0.00,0.00
"USC00311949","2009-01-25",60.98,30.92,0.00,0.00,0.00
"USC00311949","2009-01-26",37.94,32.00,3.00,0.00,0.00
"USC00311949","2009-01-27",42.98,37.04,0.00,0.00,0.00
"USC00311949","2009-01-28",44.06,37.94,25.00,0.00,0.00
"USC00311949","2009-01-29",69.98,42.08,56.00,0.00,0.00
"USC00311949","2009-01-30",50.00,28.94,0.00,0.00,0.00
"USC00311949","2009-01-31",51.98,26.06,0.00,0.00,0.00
"USC00311949","2009-02-01",44.06,26.06,0.00,0.00,0.00
"USC00311949","2009-02-02",57.92,35.96,0.00,0.00,0.00
"USC00311949","2009-02-03",60.98,33.98,0.00,0.00,0.00
"USC00311949","2009-02-04",41.00,26.96,25.00,0.00,0.00
"USC00311949","2009-02-05",37.94,21.92,0.00,0.00,0.00
"USC00311949","2009-02-06",30.92,15.08,0.00,0.00,0.00
"USC00311949","2009-02-07",44.96,17.06,0.00,0.00,0.00
"USC00311949","2009-02-08",62.96,33.08,0.00,0.00,0.00
"USC00311949","2009-02-09",71.06,42.08,0.00,0.00,0.00
"USC00311949","2009-02-10",62.06,35.96,0.00,0.00,0.00
"USC00311949","2009-02-11",71.96,39.02,0.00,0.00,0.00
"USC00311949","2009-02-12",71.96,55.04,0.00,0.00,0.00
"USC00311949","2009-02-13",69.08,41.00,0.00,0.00,0.00
"USC00311949","2009-02-14",64.94,33.08,0.00,0.00,0.00
"USC00311949","2009-02-15",55.04,35.96,0.00,0.00,0.00
"USC00311949","2009-02-16",46.94,32.00,0.00,0.00,0.00
"USC00311949","2009-02-17",46.04,24.98,0.00,0.00,0.00
"USC00311949","2009-02-18",44.06,23.00,0.00,0.00,0.00
"USC00311949","2009-02-19",57.02,39.02,188.00,0.00,0.00
"USC00311949","2009-02-20",62.96,28.04,0.00,0.00,0.00
"USC00311949","2009-02-21",57.92,35.96,0.00,0.00,0.00
"USC00311949","2009-02-22",51.08,21.02,5.00,0.00,0.00
"USC00311949","2009-02-23",51.98,24.08,5.00,0.00,0.00
"USC00311949","2009-02-24",42.08,24.08,0.00,0.00,0.00
"USC00311949","2009-02-25",41.00,17.96,0.00,0.00,0.00
"USC00311949","2009-02-26",51.08,19.04,0.00,0.00,0.00
"USC00311949","2009-02-27",64.94,30.02,0.00,0.00,0.00
"USC00311949","2009-02-28",68.00,44.06,25.00,0.00,0.00
"USC00311949","2009-03-01",55.94,39.02,152.00,0.00,0.00
"USC00311949","2009-03-02",44.96,33.98,145.00,0.00,0.00
"USC00311949","2009-03-03",33.98,19.94,0.00,0.00,0.00
"USC00311949","2009-03-04",30.92,17.06,0.00,0.00,0.00
"USC00311949","2009-03-05",55.04,23.00,0.00,0.00,0.00
"USC00311949","2009-03-06",41.00,17.06,0.00,0.00,0.00
"USC00311949","2009-03-07",68.00,35.96,0.00,0.00,0.00
"USC00311949","2009-03-08",75.92,51.08,0.00,0.00,0.00
"USC00311949","2009-03-09",80.06,55.94,0.00,0.00,0.00
"USC00311949","2009-03-10",82.04,44.96,0.00,0.00,0.00
"USC00311949","2009-03-11",62.06,44.06,0.00,0.00,0.00
"USC00311949","2009-03-12",75.92,46.04,0.00,0.00,0.00
"USC00311949","2009-03-13",51.98,42.08,0.00,0.00,0.00
"USC00311949","2009-03-14",44.96,42.08,23.00,0.00,0.00
"USC00311949","2009-03-15",46.94,42.08,46.00,0.00,0.00
"USC00311949","2009-03-16",51.98,44.06,142.00,0.00,0.00
"USC00311949","2009-03-17",50.00,46.04,170.00,0.00,0.00
"USC00311949","2009-03-18",51.98,41.00,8.00,0.00,0.00
"USC00311949","2009-03-19",66.02,42.08,0.00,0.00,0.00
"USC00311949","2009-03-20",71.96,42.08,25.00,0.00,0.00
"USC00311949","2009-03-21",51.98,39.02,0.00,0.00,0.00
"USC00311949","2009-03-22",48.92,30.02,0.00,0.00,0.00
"USC00311949","2009-03-23",59.00,30.02,0.00,0.00,0.00
"USC00311949","2009-03-24",50.00,28.04,0.00,0.00,0.00
"USC00311949","2009-03-25",46.04,26.06,0.00,0.00,0.00
"USC00311949","2009-03-26",50.00,26.96,3.00,0.00,0.00
"USC00311949","2009-03-27",62.96,48.02,36.00,0.00,0.00
"USC00311949","2009-03-28",66.92,48.02,236.00,0.00,0.00
"USC00311949","2009-03-29",75.92,48.02,104.00,0.00,0.00
"USC00311949","2009-03-30",75.02,46.94,51.00,0.00,0.00
"USC00311949","2009-03-31",64.04,37.94,0.00,0.00,0.00
"USC00311949","2009-04-01",68.00,37.94,0.00,0.00,0.00
"USC00311949","2009-04-02",64.04,37.94,0.00,0.00,0.00
"USC00311949","2009-04-03",66.92,53.96,18.00,0.00,0.00
"USC00311949","2009-04-04",78.08,50.00,0.00,0.00,0.00
"USC00311949","2009-04-05",71.06,42.98,0.00,0.00,0.00
"USC00311949","2009-04-06",69.98,42.98,3.00,0.00,0.00
"USC00311949","2009-04-07",75.92,42.08,18.00,0.00,0.00
"USC00311949","2009-04-08",51.98,33.98,0.00,0.00,0.00
"USC00311949","2009-04-09",57.02,33.98,20.00,0.00,0.00
"USC00311949","2009-04-10",64.94,48.02,0.00,0.00,0.00
"USC00311949","2009-04-11",78.08,53.06,89.00,0.00,0.00
"USC00311949","2009-04-12",71.06,44.06,3.00,0.00,0.00
"USC00311949","2009-04-13",50.00,37.04,0.00,0.00,0.00
"USC00311949","2009-04-14",60.98,39.02,25.00,0.00,0.00
"USC00311949","2009-04-15",69.98,53.96,104.00,0.00,0.00
"USC00311949","2009-04-16",57.02,42.08,5.00,0.00,0.00
"USC00311949","2009-04-17",55.94,33.98,0.00,0.00,0.00
"USC00311949","2009-04-18",66.92,33.98,0.00,0.00,0.00
"USC00311949","2009-04-19",80.06,44.96,0.00,0.00,0.00
"USC00311949","2009-04-20",75.92,51.98,5.00,0.00,0.00
"USC00311949","2009-04-21",73.94,59.00,71.00,0.00,0.00
"USC00311949","2009-04-22",75.92,55.04,18.00,0.00,0.00
"USC00311949","2009-04-23",64.94,44.06,0.00,0.00,0.00
"USC00311949","2009-04-24",75.92,48.02,0.00,0.00,0.00
"USC00311949","2009-04-25",78.98,48.02,0.00,0.00,0.00
"USC00311949","2009-04-26",84.92,62.06,0.00,0.00,0.00
"USC00311949","2009-04-27",89.96,57.92,0.00,0.00,0.00
"USC00311949","2009-04-28",89.06,57.02,0.00,0.00,0.00
"USC00311949","2009-04-29",89.06,57.02,0.00,0.00,0.00
"USC00311949","2009-04-30",80.96,57.02,0.00,0.00,0.00
"USC00311949","2009-05-01",75.02,57.02,0.00,0.00,0.00
"USC00311949","2009-05-02",80.96,64.94,5.00,0.00,0.00
"USC00311949","2009-05-03",82.04,66.92,81.00,0.00,0.00
"USC00311949","2009-05-04",84.02,69.08,10.00,0.00,0.00
"USC00311949","2009-05-05",84.02,64.04,84.00,0.00,0.00
"USC00311949","2009-05-06",75.02,64.04,145.00,0.00,0.00
"USC00311949","2009-05-07",80.96,68.00,0.00,0.00,0.00
"USC00311949","2009-05-08",80.06,64.04,81.00,0.00,0.00
"USC00311949","2009-05-09",82.94,64.04,0.00,0.00,0.00
"USC00311949","2009-05-10",89.96,66.02,0.00,0.00,0.00
"USC00311949","2009-05-11",78.08,59.00,0.00,0.00,0.00
"USC00311949","2009-05-12",64.04,48.02,0.00,0.00,0.00
"USC00311949","2009-05-13",71.06,46.04,0.00,0.00,0.00
"USC00311949","2009-05-14",73.04,46.04,0.00,0.00,0.00
"USC00311949","2009-05-15",75.02,62.96,89.00,0.00,0.00
"USC00311949","2009-05-16",78.98,68.00,25.00,0.00,0.00
"USC00311949","2009-05-17",78.98,66.92,236.00,0.00,0.00
"USC00311949","2009-05-18",82.04,48.92,648.00,0.00,0.00
"USC00311949","2009-05-19",57.92,48.92,46.00,0.00,0.00
"USC00311949","2009-05-20",69.08,48.92,0.00,0.00,0.00
"USC00311949","2009-05-21",69.98,50.00,0.00,0.00,0.00
"USC00311949","2009-05-22",78.08,53.06,0.00,0.00,0.00
"USC00311949","2009-05-23",78.98,55.04,0.00,0.00,0.00
"USC00311949","2009-05-24",80.96,60.08,0.00,0.00,0.00
"USC00311949","2009-05-25",78.08,60.08,0.00,0.00,0.00
"USC00311949","2009-05-26",82.04,64.04,5.00,0.00,0.00
"USC00311949","2009-05-27",82.04,66.92,0.00,0.00,0.00
"USC00311949","2009-05-28",80.06,68.00,3.00,0.00,0.00
"USC00311949","2009-05-29",84.02,68.00,0.00,0.00,0.00
"USC00311949","2009-05-30",87.98,66.02,3.00,0.00,0.00
"USC00311949","2009-05-31",87.98,66.02,0.00,0.00,0.00
"USC00311949","2009-06-01",87.08,62.06,0.00,0.00,0.00
"USC00311949","2009-06-02",82.94,66.92,0.00,0.00,0.00
"USC00311949","2009-06-03",89.06,68.00,0.00,0.00,0.00
"USC00311949","2009-06-04",89.06,68.00,0.00,0.00,0.00
"USC00311949","2009-06-05",86.00,69.98,3.00,0.00,0.00
"USC00311949","2009-06-06",82.94,66.92,5.00,0.00,0.00
"USC00311949","2009-06-07",73.94,60.98,38.00,0.00,0.00
"USC00311949","2009-06-08",82.04,64.04,0.00,0.00,0.00
"USC00311949","2009-06-09",86.00,66.02,0.00,0.00,0.00
"USC00311949","2009-06-10",84.92,62.06,107.00,0.00,0.00
"USC00311949","2009-06-11",86.00,62.06,0.00,0.00,0.00
"USC00311949","2009-06-12",84.92,64.04,0.00,0.00,0.00
"USC00311949","2009-06-13",89.06,68.00,66.00,0.00,0.00
"USC00311949","2009-06-14",87.08,64.94,1143.00,0.00,0.00
"USC00311949","2009-06-15",84.02,60.98,0.00,0.00,0.00
"USC00311949","2009-06-16",80.06,62.06,0.00,0.00,0.00
"USC00311949","2009-06-17",78.08,68.00,0.00,0.00,0.00
"USC00311949","2009-06-18",78.98,66.92,0.00,0.00,0.00
"USC00311949","2009-06-19",80.06,69.08,71.00,0.00,0.00
"USC00311949","2009-06-20",84.02,71.96,0.00,0.00,0.00
"USC00311949","2009-06-21",91.94,69.98,0.00,0.00,0.00
"USC00311949","2009-06-22",86.00,62.96,0.00,0.00,0.00
"USC00311949","2009-06-23",82.04,62.96,28.00,0.00,0.00
"USC00311949","2009-06-24",78.98,64.04,8.00,0.00,0.00
"USC00311949","2009-06-25",84.92,64.04,23.00,0.00,0.00
"USC00311949","2009-06-26",87.98,64.04,0.00,0.00,0.00
"USC00311949","2009-06-27",89.96,64.04,3.00,0.00,0.00
"USC00311949","2009-06-28",87.98,64.04,0.00,0.00,0.00
"USC00311949","2009-06-29",84.02,64.04,20.00,0.00,0.00
"USC00311949","2009-06-30",89.06,64.94,0.00,0.00,0.00
"USC00311949","2009-07-01",89.96,66.92,0.00,0.00,0.00
"USC00311949","2009-07-02",91.94,71.06,8.00,0.00,0.00
"USC00311949","2009-07-03",91.94,66.92,0.00,0.00,0.00
"USC00311949","2009-07-04",82.94,62.96,0.00,0.00,0.00
"USC00311949","2009-07-05",84.02,62.96,0.00,0.00,0.00
"USC00311949","2009-07-06",80.96,69.08,775.00,0.00,0.00
"USC00311949","2009-07-07",78.08,68.00,5.00,0.00,0.00
"USC00311949","2009-07-08",82.04,60.98,0.00,0.00,0.00
"USC00311949","2009-07-09",86.00,60.98,8.00,0.00,0.00
"USC00311949","2009-07-10",86.00,60.08,0.00,0.00,0.00
"USC00311949","2009-07-11",75.92,55.04,0.00,0.00,0.00
"USC00311949","2009-07-12",82.94,55.04,0.00,0.00,0.00
"USC00311949","2009-07-13",87.98,71.96,0.00,0.00,0.00
"USC00311949","2009-07-14",80.06,66.92,137.00,0.00,0.00
"USC00311949","2009-07-15",82.04,59.00,0.00,0.00,0.00
"USC00311949","2009-07-16",84.92,59.00,0.00,0.00,0.00
"USC00311949","2009-07-17",89.06,71.06,5.00,0.00,0.00
"USC00311949","2009-07-18",89.06,69.98,427.00,0.00,0.00
"USC00311949","2009-07-19",84.02,69.98,5.00,0.00,0.00
"USC00311949","2009-07-20",80.96,69.08,0.00,0.00,0.00
"USC00311949","2009-07-21",86.00,66.02,356.00,0.00,0.00
"USC00311949","2009-07-22",86.00,60.98,8.00,0.00,0.00
"USC00311949","2009-07-23",86.00,66.02,25.00,0.00,0.00
"USC00311949","2009-07-24",82.04,66.02,0.00,0.00,0.00
"USC00311949","2009-07-25",86.00,64.94,168.00,0.00,0.00
"USC00311949","2009-07-26",87.98,69.98,0.00,0.00,0.00
"USC00311949","2009-07-27",89.96,75.92,0.00,0.00,0.00
"USC00311949","2009-07-28",87.98,71.96,0.00,0.00,0.00
"USC00311949","2009-07-29",87.98,71.96,0.00,0.00,0.00
"USC00311949","2009-07-30",87.98,75.02,53.00,0.00,0.00
"USC00311949","2009-07-31",89.96,75.02,0.00,0.00,0.00
"USC00311949","2009-10-01",71.96,48.02,0.00,0.00,0.00
"USC00311949","2009-10-02",75.02,48.02,0.00,0.00,0.00
"USC00311949","2009-10-03",78.98,50.00,66.00,0.00,0.00
"USC00311949","2009-10-04",80.96,60.08,0.00,0.00,0.00
"USC00311949","2009-10-05",77.00,60.08,0.00,0.00,0.00
"USC00311949","2009-10-06",69.08,59.00,36.00,0.00,0.00
"USC00311949","2009-10-07",73.04,60.98,5.00,0.00,0.00
"USC00311949","2009-10-08",82.94,50.00,0.00,0.00,0.00
"USC00311949","2009-10-09",71.06,48.92,0.00,0.00,0.00
"USC00311949","2009-10-10",84.02,55.04,8.00,0.00,0.00
"USC00311949","2009-10-11",87.98,62.06,23.00,0.00,0.00
"USC00311949","2009-10-12",68.00,51.98,8.00,0.00,0.00
"USC00311949","2009-10-13",69.08,57.92,8.00,0.00,0.00
"USC00311949","2009-10-14",75.02,55.04,0.00,0.00,0.00
"USC00311949","2009-10-15",62.06,53.06,163.00,0.00,0.00
"USC00311949","2009-10-16",68.00,53.96,114.00,0.00,0.00
"USC00311949","2009-10-17",59.00,48.02,5.00,0.00,0.00
"USC00311949","2009-10-18",51.98,44.96,0.00,0.00,0.00
"USC00311949","2009-10-19",48.02,42.08,36.00,0.00,0.00
"USC00311949","2009-10-20",59.00,33.98,0.00,0.00,0.00
"USC00311949","2009-10-21",66.92,33.98,0.00,0.00,0.00
"USC00311949","2009-10-22",75.02,39.02,0.00,0.00,0.00
"USC00311949","2009-10-23",78.08,42.98,0.00,0.00,0.00
"USC00311949","2009-10-24",80.96,51.98,0.00,0.00,0.00
"USC00311949","2009-10-25",82.04,60.98,18.00,0.00,0.00
"USC00311949","2009-10-26",64.94,50.00,0.00,0.00,0.00
"USC00311949","2009-10-27",69.08,57.92,185.00,0.00,0.00
"USC00311949","2009-10-28",75.02,59.00,0.00,0.00,0.00
"USC00311949","2009-10-29",82.04,55.94,10.00,0.00,0.00
"USC00311949","2009-10-30",62.06,53.96,0.00,0.00,0.00
"USC00311949","2009-10-31",71.06,57.02,0.00,0.00,0.00
"USC00311949","2009-11-01",80.96,60.08,64.00,0.00,0.00
"USC00311949","2009-11-02",64.94,55.94,13.00,0.00,0.00
"USC00311949","2009-11-03",57.92,53.96,10.00,0.00,0.00
"USC00311949","2009-11-04",66.02,42.98,0.00,0.00,0.00
"USC00311949","2009-11-05",66.92,46.04,5.00,0.00,0.00
"USC00311949","2009-11-06",64.94,39.02,0.00,0.00,0.00
"USC00311949","2009-11-07",57.02,32.00,0.00,0.00,0.00
"USC00311949","2009-11-08",62.96,32.00,0.00,0.00,0.00
"USC00311949","2009-11-09",73.94,41.00,0.00,0.00,0.00
"USC00311949","2009-11-10",75.02,42.08,0.00,0.00,0.00
"USC00311949","2009-11-11",73.94,53.96,203.00,0.00,0.00
"USC00311949","2009-11-12",62.06,59.00,1524.00,0.00,0.00
"USC00311949","2009-11-13",62.96,55.04,533.00,0.00,0.00
"USC00311949","2009-11-14",59.00,55.04,114.00,0.00,0.00
"USC00311949","2009-11-15",57.92,55.04,8.00,0.00,0.00
"USC00311949","2009-11-16",66.92,50.00,0.00,0.00,0.00
"USC00311949","2009-11-17",69.98,48.02,0.00,0.00,0.00
"USC00311949","2009-11-18",69.98,48.02,0.00,0.00,0.00
"USC00311949","2009-11-19",69.08,60.08,163.00,0.00,0.00
"USC00311949","2009-11-20",73.04,60.08,28.00,0.00,0.00
"USC00311949","2009-11-21",66.02,46.94,8.00,0.00,0.00
"USC00311949","2009-11-22",64.04,42.98,0.00,0.00,0.00
"USC00311949","2009-11-23",60.98,46.04,28.00,0.00,0.00
"USC00311949","2009-11-24",69.08,55.04,277.00,0.00,0.00
"USC00311949","2009-11-25",55.94,53.06,13.00,0.00,0.00
"USC00311949","2009-11-26",55.94,51.08,10.00,0.00,0.00
"USC00311949","2009-11-27",62.96,41.00,25.00,0.00,0.00
"USC00311949","2009-11-28",55.94,35.06,0.00,0.00,0.00
"USC00311949","2009-11-29",55.04,35.06,0.00,0.00,0.00
"USC00311949","2009-11-30",69.08,39.02,0.00,0.00,0.00
"USC00311949","2010-02-01",33.08,21.92,0.00,0.00,0.00
"USC00311949","2010-02-02",46.04,24.08,0.00,0.00,0.00
"USC00311949","2010-02-03",46.04,28.94,124.00,0.00,0.00
"USC00311949","2010-02-04",44.96,30.02,0.00,0.00,0.00
"USC00311949","2010-02-05",42.08,30.02,0.00,0.00,0.00
"USC00311949","2010-02-06",60.98,30.02,533.00,0.00,0.00
"USC00311949","2010-02-07",39.02,26.06,0.00,0.00,0.00
"USC00311949","2010-02-08",37.94,24.08,0.00,0.00,0.00